Miscellaneous Local Product
Issued by NWS Hastings, NE

Home | Current Version | Previous Version | Text Only | Print | Product List | Glossary On
Versions: 1 2 3 4 5 6 7 8 9 10 11 12 13 14 15 16 17 18 19 20 21 22 23 24 25 26 27 28 29 30 31 32 33 34 35 36 37 38 39 40 41 42 43 44 45 46 47 48 49 50
000
AXUS43 KGID 250202
MISGRI

GID CWA HOURLY WEATHER ROUNDUP
NATIONAL WEATHER SERVICE HASTINGS NE
900 PM CDT WED AUG 24 2016

NOTE: "FAIR" INDICATES FEW OR NO CLOUDS BELOW 12,000 FEET WITH NO
SIGNIFICANT WEATHER AND/OR OBSTRUCTIONS TO VISIBILITY.

...SOUTH CENTRAL NEBRASKA...

CITY           SKY/WX    TMP DP  RH WIND       PRES   REMARKS
GRAND ISLAND   CLOUDY    62  55  77 CALM      30.11R
HASTINGS       CLEAR     62  56  80 CALM      30.12R
KEARNEY        CLOUDY    64  54  68 E6        30.12R
ORD            CLOUDY    65  59  81 CALM      30.11R
YORK           CLOUDY    63  59  88 CALM      30.10R
AURORA         CLOUDY    61  59  92 NE5       30.10R
LEXINGTON      CLOUDY    68  49  51 SE6       30.13R
HOLDREGE       PTCLDY    63  55  74 E3        30.13R
HEBRON         CLOUDY    64  60  87 N3        30.07F

...NEBRASKA PANHANDLE...

CITY           SKY/WX    TMP DP  RH WIND       PRES   REMARKS
CHADRON        TSTM      69  43  38 S8        30.17R
ALLIANCE       CLOUDY    65  46  50 CALM      30.19R
SCOTTSBLUFF    PTCLDY    64  46  52 E7        30.18R
SIDNEY         PTCLDY    63  42  46 NE7       30.22R

...WESTERN AND NORTH CENTRAL NEBRASKA...

CITY           SKY/WX    TMP DP  RH WIND       PRES   REMARKS
VALENTINE      MOCLDY    62  54  74 SW6       30.16R
AINSWORTH      CLOUDY    64  56  75 SW5       30.17R
ONEILL         PTCLDY    65  56  71 NW3       30.13R
BROKEN BOW     CLOUDY    65  54  67 E6        30.12R
IMPERIAL       CLOUDY    67  45  45 CALM      30.17R
NORTH PLATTE   PTCLDY    65  54  67 E3        30.14R
MCCOOK         CLOUDY    66  50  56 SE6       30.13S

...EASTERN NEBRASKA...

CITY           SKY/WX    TMP DP  RH WIND       PRES   REMARKS
NORFOLK        CLEAR     59  56  89 CALM      30.09R
SO SIOUX CITY  CLOUDY    66  60  81 NW5       30.06R
TEKAMAH        PTCLDY    66  62  87 NW9       30.05R
COLUMBUS       CLOUDY    61  52  72 W3        30.10R
ALBION         PTCLDY    61  56  83 CALM      30.11R
OMAHA EPPLEY   CLOUDY    69  64  84 N7        30.04R
OFFUTT AFB     CLOUDY    70  65  82 N5        30.04R
MILLARD        CLOUDY    70  63  78 NW7       30.06R
LINCOLN        CLOUDY    68  63  84 N5        30.07R
NEBRASKA CITY  CLOUDY    69  69  99 CALM      30.04S
BEATRICE       CLOUDY    65  63  93 NW5       30.07R
FALLS CITY     CLOUDY    70  69  97 NW5       30.02F

...NORTHERN KANSAS...

CITY           SKY/WX    TMP DP  RH WIND       PRES   REMARKS
GOODLAND       PTCLDY    61  48  62 NE6       30.16S
HILL CITY      CLOUDY    63  56  78 NE6       30.11S
NORTON         PTCLDY    64  48  55 N3        30.12R
SMITH CENTER   CLEAR     63  57  82 CALM      30.10S
BELOIT         CLEAR     63  57  82 N7        30.06R
HAYS           CLOUDY    64  54  68 NE9       30.08R
RUSSELL        MOCLDY    63  60  90 N9        30.06R
CONCORDIA      CLOUDY    63  59  87 N7        30.07R
SALINA         PTCLDY    72  63  73 N6        30.04R
TOPEKA         LGT RAIN  72  70  93 N6        29.99R



USA.gov is the U.S. government's official web portal to all federal, state and local government web resources and services.